Location: Newark
(43.0000°N, 1.6781°W)
Time: 02:45:42
(UTC+00:00)

X-37B - Pass Details

Date: 11 December 2021
Orbit: 334 x 337 km, 45.0° (Epoch: 11 January)

Event Time Altitude Azimuth Distance (km) Brightness Sun altitude
Rises 18:32:38 0° 275° (W) 2,103 5.6 -21.2°
Reaches altitude 10° 18:34:39 10° 280° (W) 1,267 4.1 -21.6°
Enters shadow 18:36:18 29° 296° (WNW) 647 2.2 -21.9°
